Stations météo

réclame
Mon MeteoGroup
Beauvechain, Belgique (6458): Température de l'air & dewpoint: 13.07.2019 20:00:00 - 19.07.2019 20:00:00 (CEST)Beauvechain, Belgique (6458): Vitesse du vent & gusts: 13.07.2019 20:00:00 - 19.07.2019 20:00:00 (CEST)Beauvechain, Belgique (6458): Direction du vent: 13.07.2019 20:00:00 - 19.07.2019 20:00:00 (CEST)Beauvechain, Belgique (6458): reduced air pressure: 13.07.2019 20:00:00 - 19.07.2019 20:00:00 (CEST)Beauvechain, Belgique (6458): visibility: 13.07.2019 20:00:00 - 19.07.2019 20:00:00 (CEST)
Date & Time tt [°C] td [°C] ff [km/h] ff [knt] fx [km/h] fx [knt] dd ppp [hPa] vv [km]
19.07.2019 20:00:00 23,1 11,9 14 8 - - SW 1013,3 20
19.07.2019 19:00:00 23,3 11,7 14 8 25 14 SW 1013,5 20
19.07.2019 18:00:00 24,5 11,1 11 6 29 16 SSW 1013,6 20
19.07.2019 17:00:00 24,1 10,6 11 6 - - SW 1013,8 20
19.07.2019 16:00:00 23,3 10,2 14 8 29 16 SW 1014,2 20
19.07.2019 15:00:00 23,7 10,7 14 8 25 14 SSW 1014,5 20
19.07.2019 14:00:00 22,5 10,4 14 8 - - WSW 1014,6 20
19.07.2019 13:00:00 22,1 11,1 18 10 29 16 SSW 1014,7 20
19.07.2019 12:00:00 21,2 12,8 18 10 25 14 SW 1014,7 20
19.07.2019 11:00:00 19,3 13,4 14 8 - - SW 1015,1 20
19.07.2019 10:00:00 17,5 13,1 14 8 22 12 SW 1015,2 20
19.07.2019 09:00:00 16,7 12,8 14 8 22 12 SW 1014,7 20
19.07.2019 08:00:00 16,1 12,7 14 8 - - WSW 1014,6 20
19.07.2019 07:00:00 15,1 12,4 11 6 18 10 SW 1014,2 20
19.07.2019 06:00:00 14,8 12,0 5 3 18 10 SSW 1014,0 10
19.07.2019 05:00:00 15,3 12,2 11 6 - - SW 1013,8 20
19.07.2019 04:00:00 16,6 13,9 11 6 18 10 WSW 1013,8 20
19.07.2019 03:00:00 17,0 14,7 11 6 18 10 SW 1013,7 20
19.07.2019 02:00:00 17,2 14,4 11 6 - - SW 1013,7 20
19.07.2019 01:00:00 17,7 14,1 7 4 11 6 SW 1013,5 20
19.07.2019 00:00:00 17,7 14,1 11 6 11 6 SW 1013,2 20
18.07.2019 23:00:00 18,1 14,2 7 4 - - SSW 1013,2 20
18.07.2019 22:00:00 18,7 13,9 14 8 22 12 SW 1013,2 20
18.07.2019 21:00:00 19,2 13,8 14 8 22 12 SW 1012,7 20
18.07.2019 20:00:00 19,2 14,1 18 10 - - W 1012,6 20
18.07.2019 19:00:00 21,6 11,3 22 12 32 18 WSW 1012,1 20
18.07.2019 18:00:00 22,2 12,5 22 12 29 16 WSW 1011,8 20
18.07.2019 17:00:00 22,7 12,3 14 8 - - WSW 1011,7 20
18.07.2019 16:00:00 22,4 11,9 18 10 29 16 WSW 1012,1 20
18.07.2019 15:00:00 22,3 10,8 18 10 29 16 W 1012,0 20
18.07.2019 14:00:00 22,2 8,8 18 10 - - W 1012,0 20
18.07.2019 13:00:00 21,6 11,5 18 10 32 18 SW 1012,0 20
18.07.2019 12:00:00 20,7 12,4 22 12 29 16 SW 1012,2 15
18.07.2019 11:00:00 19,4 11,6 14 8 - - SW 1012,1 15
18.07.2019 10:00:00 19,5 12,1 14 8 22 12 WSW 1012,1 15
18.07.2019 09:00:00 17,4 10,5 14 8 22 12 WSW 1012,2 15
18.07.2019 08:00:00 16,0 11,3 11 6 - - SW 1012,2 12
18.07.2019 07:00:00 15,3 11,5 11 6 14 8 SW 1012,2 8
18.07.2019 06:00:00 15,6 11,0 11 6 14 8 SSW 1012,0 8
18.07.2019 05:00:00 15,8 10,7 7 4 - - WSW 1012,1 10
18.07.2019 04:00:00 17,2 10,8 7 4 18 10 SSE 1011,8 14
18.07.2019 03:00:00 17,4 10,9 11 6 14 8 SSE 1012,5 17
18.07.2019 02:00:00 17,8 11,0 7 4 - - SE 1012,7 20
18.07.2019 01:00:00 18,0 10,9 7 4 11 6 SSE 1013,0 20
18.07.2019 00:00:00 18,6 11,0 7 4 11 6 N 1012,8 20
17.07.2019 23:00:00 19,3 11,3 4 2 - - N 1013,2 20
17.07.2019 22:00:00 20,2 11,6 4 2 7 4 N 1013,3 19
17.07.2019 21:00:00 21,2 11,6 4 2 7 4 N 1013,2 20
17.07.2019 20:00:00 22,1 11,9 4 2 - - N 1013,3 20
17.07.2019 19:00:00 23,0 11,1 7 4 11 6 N 1013,6 20
17.07.2019 18:00:00 22,9 11,4 4 2 14 8 N 1013,7 20
17.07.2019 17:00:00 23,7 11,0 4 2 - - N 1014,3 20
17.07.2019 16:00:00 23,2 10,4 4 2 18 10 N 1014,7 20
17.07.2019 15:00:00 23,0 11,6 4 2 18 10 N 1015,1 20
17.07.2019 14:00:00 21,7 11,0 4 2 - - N 1015,5 15
17.07.2019 13:00:00 21,0 12,4 4 2 11 6 N 1016,1 15
17.07.2019 12:00:00 20,5 11,4 4 2 11 6 N 1016,3 15
17.07.2019 11:00:00 18,2 11,6 4 2 - - N 1016,6 11
17.07.2019 10:00:00 18,2 12,0 5 3 11 6 NNE 1016,7 9
17.07.2019 09:00:00 16,4 12,9 4 2 4 2 N 1016,7 6
17.07.2019 08:00:00 13,8 11,9 4 2 - - N 1016,7 5
17.07.2019 07:00:00 12,3 10,7 4 2 4 2 N 1016,8 5
17.07.2019 06:00:00 11,5 10,0 4 2 4 2 N 1017,2 5
17.07.2019 05:00:00 11,8 9,9 4 2 - - N 1017,1 8
17.07.2019 04:00:00 12,3 10,0 4 2 4 2 N 1017,2 9
17.07.2019 03:00:00 12,8 9,9 4 2 4 2 N 1017,7 10
17.07.2019 02:00:00 13,3 9,8 4 2 - - N 1018,0 11
17.07.2019 01:00:00 14,1 9,7 4 2 0 0 N 1018,0 20
17.07.2019 00:00:00 15,3 10,0 2 1 0 0 - 1018,0 2,8
16.07.2019 23:00:00 15,8 10,3 0 0 - - N 1018,1 18
16.07.2019 22:00:00 16,7 10,6 4 2 7 4 N 1018,1 15
16.07.2019 21:00:00 17,3 11,5 4 2 11 6 N 1018,0 18
16.07.2019 20:00:00 19,2 10,5 7 4 - - NE 1017,8 17
16.07.2019 19:00:00 20,1 10,4 4 2 14 8 N 1018,0 20
16.07.2019 18:00:00 19,7 9,7 5 3 14 8 NW 1018,2 10
16.07.2019 17:00:00 20,0 9,9 4 2 - - N 1018,7 15
16.07.2019 16:00:00 18,8 9,7 7 4 14 8 NE 1019,5 15
16.07.2019 15:00:00 18,5 9,7 4 2 11 6 N 1019,5 15
16.07.2019 14:00:00 16,7 9,7 4 2 - - N 1020,0 20
16.07.2019 13:00:00 15,6 10,3 4 2 11 6 N 1020,2 17
16.07.2019 12:00:00 15,3 9,8 4 2 4 2 N 1020,5 10
16.07.2019 11:00:00 15,0 10,8 2 1 - - - 1020,6 10
16.07.2019 10:00:00 14,0 11,1 4 2 4 2 N 1020,7 10
16.07.2019 09:00:00 13,4 12,5 4 2 4 2 N 1020,7 7
16.07.2019 08:00:00 12,6 11,7 4 2 - - N 1020,7 6
16.07.2019 07:00:00 12,2 11,4 4 2 4 2 N 1020,6 6
16.07.2019 06:00:00 11,0 9,8 4 2 4 2 N 1020,3 9
16.07.2019 05:00:00 11,6 10,1 4 2 - - N 1020,3 13
16.07.2019 04:00:00 12,0 10,5 4 2 4 2 N 1020,5 17
16.07.2019 03:00:00 12,1 10,6 4 2 0 0 N 1020,8 19
16.07.2019 02:00:00 12,6 10,6 4 2 - - N 1021,0 20
16.07.2019 01:00:00 13,1 10,5 7 4 14 8 N 1020,8 20
16.07.2019 00:00:00 14,3 11,1 7 4 14 8 NNW 1020,8 20
15.07.2019 23:00:00 14,4 10,6 7 4 - - N 1020,7 20
15.07.2019 22:00:00 15,2 10,3 7 4 14 8 N 1020,6 20
15.07.2019 21:00:00 16,0 10,2 11 6 14 8 NNE 1020,5 20
15.07.2019 20:00:00 16,6 9,4 11 6 - - N 1020,3 20
15.07.2019 19:00:00 17,1 8,9 11 6 18 10 NNE 1020,3 20
15.07.2019 18:00:00 17,1 9,9 8 4 14 8 N 1020,7 10
15.07.2019 17:00:00 16,3 10,5 7 4 - - N 1021,1 18
15.07.2019 16:00:00 16,1 10,8 7 4 18 10 N 1021,2 18
15.07.2019 15:00:00 16,3 10,2 14 8 22 12 N 1021,1 18
15.07.2019 14:00:00 16,3 9,5 7 4 - - N 1021,1 18
15.07.2019 13:00:00 15,3 9,5 7 4 18 10 NNW 1021,2 18
15.07.2019 12:00:00 15,4 9,3 9 5 18 10 N 1021,1 10
15.07.2019 11:00:00 15,3 9,1 7 4 - - NNE 1021,2 18
15.07.2019 10:00:00 14,9 9,5 7 4 11 6 N 1021,1 18
15.07.2019 09:00:00 13,7 10,6 4 2 7 4 N 1021,2 18
15.07.2019 08:00:00 12,5 10,9 4 2 - - N 1021,1 15
15.07.2019 07:00:00 11,8 10,4 4 2 4 2 N 1020,8 15
15.07.2019 06:00:00 10,8 9,6 2 1 4 2 - 1020,7 10
15.07.2019 05:00:00 10,6 9,1 4 2 - - N 1020,7 13
15.07.2019 04:00:00 11,0 9,2 4 2 11 6 N 1020,7 15
15.07.2019 03:00:00 11,0 9,1 7 4 7 4 N 1021,3 20
15.07.2019 02:00:00 11,5 9,2 7 4 - - N 1021,3 20
15.07.2019 01:00:00 13,0 10,2 11 6 22 12 N 1021,3 20
15.07.2019 00:00:00 14,8 10,7 14 8 22 12 N 1021,2 20
14.07.2019 23:00:00 14,6 10,9 9 5 - - N 1021,0 10
14.07.2019 22:00:00 15,8 11,2 7 4 18 10 N 1020,7 20
14.07.2019 21:00:00 16,5 11,4 11 6 22 12 N 1020,6 20
14.07.2019 20:00:00 16,7 11,2 11 6 - - N 1020,6 20
14.07.2019 19:00:00 17,1 10,8 14 8 22 12 NNE 1020,5 20
14.07.2019 18:00:00 17,0 11,9 11 6 18 10 N 1020,5 20
14.07.2019 17:00:00 17,3 11,2 11 6 - - NNE 1020,5 20
14.07.2019 16:00:00 17,2 11,3 14 8 22 12 N 1020,7 20
14.07.2019 15:00:00 17,2 11,2 7 4 22 12 N 1020,7 20
14.07.2019 14:00:00 17,6 11,6 11 6 - - NNW 1020,8 20
14.07.2019 13:00:00 16,2 11,3 7 4 14 8 N 1021,2 20
14.07.2019 12:00:00 16,5 10,5 11 6 22 12 N 1021,1 19
14.07.2019 11:00:00 15,6 10,2 11 6 - - N 1021,2 20
14.07.2019 10:00:00 15,2 10,0 15 8 18 10 NNE 1021,2 10
14.07.2019 09:00:00 14,6 9,9 7 4 22 12 NNE 1021,0 20
14.07.2019 08:00:00 14,0 10,3 11 6 - - N 1020,7 18
14.07.2019 07:00:00 13,4 10,6 7 4 22 12 N 1020,6 15
14.07.2019 06:00:00 13,6 10,5 8 4 11 6 N 1020,6 10
14.07.2019 05:00:00 13,7 10,5 7 4 - - NNW 1020,7 18
14.07.2019 04:00:00 13,8 12,0 7 4 11 6 N 1020,8 18
14.07.2019 03:00:00 13,9 12,4 7 4 14 8 N 1021,1 15
14.07.2019 02:00:00 13,8 12,4 11 6 - - N 1021,2 16
14.07.2019 01:00:00 13,3 11,4 7 4 18 10 NNW 1021,3 20
14.07.2019 00:00:00 13,5 11,4 11 6 18 10 NNW 1021,3 20
13.07.2019 23:00:00 14,8 12,0 11 6 - - NNW 1021,2 20
13.07.2019 22:00:00 15,5 12,1 7 4 25 14 NNW 1020,7 20
13.07.2019 21:00:00 17,2 12,1 14 8 32 18 NNW 1020,2 20
13.07.2019 20:00:00 18,2 12,6 14 8 - - NW 1019,7 20

tt = Température de l'air
td = dewpoint
ff = Vitesse du vent
fx = gusts
dd = Direction du vent
ppp = reduced air pressure
vv = visibility

stations d'obs. à proximité